Weather History for Douglas, WY

Change the Weather History Date:

Saturday, April 13, 2013

  Actual Average Record
Temperature  
Mean Temperature 43 °F 43 °F  
Max Temperature 57 °F 57 °F 79 °F (2003)
Min Temperature 29 °F 29 °F 17 °F (2014)
Degree Days  
Heating Degree Days 22 22  
Month to date heating degree days 351 306  
Since 1 July heating degree days 6295 6624  
Cooling Degree Days 0 0  
Month to date cooling degree days 0 0  
Year to date cooling degree days 0 0  
Moisture  
Dew Point 31 °F    
Average Humidity 65    
Maximum Humidity 92    
Minimum Humidity 38    
Precipitation  
Precipitation T in 0.05 in 0.40 in (2012)
Month to date precipitation 0.25 0.49  
Year to date precipitation 1.22 2.13  
Sea Level Pressure  
Sea Level Pressure 29.53 in    
Wind  
Wind Speed 19 mph (SW)    
Max Wind Speed 43 mph    
Max Gust Speed 52 mph    
Visibility 10 miles    
Events Rain    
T = Trace of Precipitation, MM = Missing Value Source: NWS Daily Summary

Daily Weather History Graph

Daily Weather History Graph

Search for Another Location

Airport:

Trip Planner

Search our weather history database for the weather conditions in past years. The results will help you decide how hot, cold, wet, or windy it might be!

Date:

Astronomy

Apr. 13, 2013 Rise Set
Actual Time 6:22 AM MDT 7:41 PM MDT
Civil Twilight 5:53 AM MDT 8:11 PM MDT
Nautical Twilight 5:18 AM MDT 8:46 PM MDT
Astronomical Twilight 4:41 AM MDT 9:23 PM MDT
Moon 8:12 AM MDT (4/13) 11:12 PM MDT (4/13)
Length of Visible Light 14h 17m
Length of Day
13h 19m
Waxing Crescent, 11% of the Moon is Illuminated
Apr 13
Waxing Crescent
Apr 18
First Quarter
Apr 25
Full
May 2
Last Quarter
May 9
New

Hourly Weather History & Observations

Time (MDT) Temp. Windchill Dew Point Humidity Pressure Visibility Wind Dir Wind Speed Gust Speed Precip Events Conditions
12:53 AM 30.0 °F 19.5 °F 26.1 °F 85% 29.90 in 10.0 mi ESE 13.8 mph - N/A   Clear
1:53 AM 30.9 °F 20.7 °F 27.0 °F 85% 29.86 in 10.0 mi SE 13.8 mph - N/A   Clear
2:53 AM 30.9 °F 20.7 °F 27.0 °F 85% 29.79 in 10.0 mi SE 13.8 mph - N/A   Clear
3:53 AM 30.0 °F 19.1 °F 27.0 °F 88% 29.78 in 10.0 mi SE 15.0 mph - N/A   Clear
4:53 AM 30.0 °F 19.5 °F 26.1 °F 85% 29.73 in 10.0 mi SE 13.8 mph - N/A   Clear
5:53 AM 28.9 °F 19.2 °F 26.1 °F 89% 29.68 in 10.0 mi SE 11.5 mph - N/A   Clear
6:53 AM 30.0 °F 22.4 °F 27.0 °F 88% 29.67 in 10.0 mi SE 8.1 mph - N/A   Clear
7:53 AM 32.0 °F 23.6 °F 28.0 °F 85% 29.64 in 10.0 mi SSE 10.4 mph - N/A   Mostly Cloudy
8:53 AM 37.0 °F 30.4 °F 30.0 °F 76% 29.59 in 10.0 mi SSE 9.2 mph 17.3 mph N/A   Clear
9:53 AM 45.0 °F 42.6 °F 30.0 °F 56% 29.56 in 10.0 mi Variable 4.6 mph - N/A   Clear
10:53 AM 46.9 °F - 32.0 °F 56% 29.53 in 10.0 mi West 27.6 mph 39.1 mph N/A   Clear
11:53 AM 48.9 °F - 33.1 °F 54% 29.49 in 10.0 mi WSW 33.4 mph 42.6 mph N/A   Clear
12:53 PM 51.1 °F - 32.0 °F 48% 29.45 in 10.0 mi West 36.8 mph 48.3 mph N/A   Clear
1:53 PM 54.0 °F - 28.9 °F 38% 29.41 in 10.0 mi West 25.3 mph 34.5 mph N/A   Partly Cloudy
2:53 PM 55.0 °F - 30.0 °F 38% 29.40 in 10.0 mi WSW 25.3 mph 33.4 mph N/A   Mostly Cloudy
3:53 PM 55.0 °F - 32.0 °F 42% 29.39 in 10.0 mi WSW 23.0 mph 29.9 mph N/A   Partly Cloudy
4:53 PM 52.0 °F - 33.1 °F 49% 29.38 in 10.0 mi WSW 28.8 mph 46.0 mph N/A   Clear
5:53 PM 48.0 °F - 35.1 °F 61% 29.39 in 10.0 mi SW 29.9 mph 43.7 mph N/A   Clear
6:53 PM 48.9 °F - 34.0 °F 56% 29.34 in 10.0 mi WSW 24.2 mph 35.7 mph N/A   Clear
7:53 PM 48.0 °F - 33.1 °F 56% 29.35 in 10.0 mi West 21.9 mph 28.8 mph N/A   Clear
8:53 PM 44.1 °F 34.8 °F 35.1 °F 71% 29.38 in 10.0 mi West 25.3 mph 46.0 mph 0.00 in Rain Light Rain
9:53 PM 43.0 °F 38.8 °F 33.1 °F 68% 29.37 in 10.0 mi West 6.9 mph - 0.00 in   Scattered Clouds
10:35 PM 37.4 °F 27.8 °F 33.8 °F 87% 29.45 in 10.0 mi North 17.3 mph 25.3 mph N/A   Scattered Clouds
10:49 PM 35.6 °F 25.5 °F 33.8 °F 93% 29.46 in 10.0 mi North 17.3 mph 24.2 mph N/A   Mostly Cloudy
10:53 PM 36.0 °F 25.6 °F 33.1 °F 89% 29.43 in 10.0 mi North 18.4 mph - N/A   Mostly Cloudy
11:46 PM 35.6 °F 29.9 °F 30.2 °F 81% 29.49 in 10.0 mi NW 6.9 mph - N/A   Overcast
11:53 PM 35.1 °F 29.3 °F 30.9 °F 85% 29.47 in 10.0 mi NNW 6.9 mph - N/A   Overcast